Location: Bartlow
(52.0833°N, 0.3167°E)
Time: 11:51:09
(UTC+00:00)

Cosmos 1428 Rocket - Pass Details

Date: 26 September 2023
Orbit: 948 x 987 km, 82.9° (Epoch: 28 November)

Event Time Altitude Azimuth Distance (km) Brightness Sun altitude
Exits shadow 02:16:42 80° 67° (ENE) 972 4.4 -30.6°
Drops below altitude 10° 02:22:39 10° 12° (NNE) 2,695 7.5 -29.9°
Sets 02:25:10 0° 11° (NNE) 3,650 8.3 -29.6°
